Вернуться в каталог

ARIANE 44LP DEB

АктивенGTO
NORAD 26812·DEBRIS·🇫🇷 France

Запущен Dec 11, 1988 с Guiana Space Centre

Loading…

TLE

УстаревшееSource: Space-Track

Эпоха: Sep 13, 2026, 01:31 UTC

1 26812U 88109P   26256.06354985 -.00000087  00000-0  00000-0 0  9992
2 26812   6.0387 134.1516 7024459 278.3708 324.1962  2.21740954232145

Отслеживайте ARIANE 44LP DEB в реальном времени с AllMySat

Download on the App Store